Overview Statistics Trail Chart Weather Telemetry Raw packets
 

This is the latest recevied weather packets stored in our database for station/object KQ4PPF. If no packets are shown the sender has not sent any weather packets the latest 10 day(s).

<< 98 99 100 101 102 103 104 >>
Time Temp. Humidity Pressure Rain* Wind** Luminosity Snow
1787835151 22.22° C 97% 1014.9 hPa 0 mm - 32 W/m² -
1787834851 21.67° C 98% 1014.9 hPa 0 mm - 29 W/m² -
1787834546 21.67° C 98% 1015.2 hPa 0 mm - 31 W/m² -
1787834241 21.67° C 99% 1015.1 hPa 0 mm - 28 W/m² -
1787833937 21.11° C 99% 1015.1 hPa 0 mm - 23 W/m² -
1787833632 21.11° C 99% 1015.2 hPa 0 mm - 20 W/m² -
1787833328 21.11° C 99% 1015.3 hPa 0 mm - 19 W/m² -
1787833023 21.11° C 99% 1015.4 hPa 0 mm - 17 W/m² -
1787832718 21.11° C 99% 1015.1 hPa 0 mm - 17 W/m² -
1787832417 21.11° C 99% 1015.2 hPa 0 mm - 16 W/m² -
1787832117 21.11° C 99% 1014.9 hPa 0 mm - 14 W/m² -
1787831815 20.56° C 99% 1014.8 hPa 0 mm - 12 W/m² -
1787831510 20.56° C 99% 1014.8 hPa 0 mm - 11 W/m² -
1787831209 20.56° C 99% 1015.1 hPa 0 mm - 10 W/m² -
1787830905 20.56° C 99% 1014.6 hPa 0 mm - 10 W/m² -
1787830604 20.56° C 99% 1014.7 hPa 0 mm - 7 W/m² -
1787830304 20.56° C 99% 1014.8 hPa 0 mm - 5 W/m² -
1787830003 20.56° C 99% 1014.7 hPa 0 mm - 3 W/m² -
1787829698 20.56° C 99% 1014.6 hPa 0 mm - 1 W/m² -
1787829394 20.56° C 99% 1014.5 hPa 0 mm - 0 W/m² -
1787829090 20° C 99% 1014.4 hPa 0 mm - 0 W/m² -
1787828785 20° C 99% 1014.5 hPa 0 mm - 0 W/m² -
1787828481 20° C 99% 1014.3 hPa 0 mm - 0 W/m² -
1787828180 20° C 99% 1014.5 hPa 0 mm - 0 W/m² -
1787827879 20.56° C 99% 1014.3 hPa 0 mm - 0 W/m² -

* Rain latest hour (hover to see other rain measurements)
** Current wind speed in m/s (hover to see current wind gust speed)